WetterOnline ( https://www.wetteronline.de )

Wetter aktuell Gießen

Aktuelles Wetter: Gießen (195m)

6-stündlich | Neueste Meldungen
Ortszeit Temperatur Wetter
So, 25.09. 8:00 11.3° C bewölkt
So, 25.09. 2:00 11.9° C Sprühregen
Sa, 24.09. 20:00 15.9° C bewölkt
Sa, 24.09. 14:00 18.1° C wolkig
Sa, 24.09. 8:00 6.5° C bewölkt
Sa, 24.09. 2:00 8.8° C bedeckt
Fr, 23.09. 20:00 14.0° C bedeckt
Fr, 23.09. 14:00 17.0° C wolkig
Ortszeit Temperatur Wetter
So, 25.09. 9:00 11.7° C Sprühregen
So, 25.09. 8:50 11.7° C Sprühregen
So, 25.09. 8:40 11.6° C Sprühregen
So, 25.09. 8:30 11.4° C leichter Regen
So, 25.09. 8:20 11.4° C leichter Regen
So, 25.09. 8:10 11.3° C Sprühregen
So, 25.09. 8:00 11.3° C bewölkt
So, 25.09. 7:30 11.2° C bewölkt
So, 25.09. 7:00 11.2° C leichter Regen
So, 25.09. 6:30 11.3° C bewölkt
So, 25.09. 6:00 11.3° C leichter Regen
Ortszeit Relative Feuchte Sichtweite
So, 25.09. 8:00 97% 6 km
So, 25.09. 2:00 95% 13 km
Sa, 24.09. 20:00 64% 50 km
Sa, 24.09. 14:00 52% 40 km
Sa, 24.09. 8:00 97% 16 km
Sa, 24.09. 2:00 89% 50 km
Fr, 23.09. 20:00 68% 55 km
Fr, 23.09. 14:00 52% 40 km
Ortszeit Relative Feuchte Sichtweite
So, 25.09. 9:00 94% 8 km
So, 25.09. 8:50 94% -
So, 25.09. 8:40 95% -
So, 25.09. 8:30 97% 5.0 km
So, 25.09. 8:20 97% -
So, 25.09. 8:10 97% -
So, 25.09. 8:00 97% 6 km
So, 25.09. 7:30 98% 4.9 km
So, 25.09. 7:00 99% 3.4 km
So, 25.09. 6:30 98% 8 km
So, 25.09. 6:00 98% 3.8 km
Ortszeit Niederschlagsmenge Niederschlagsart
So, 25.09. 8:00 2 l/m2 in 12 Std. Regen
So, 25.09. 2:00 0.5 l/m2 in 6 Std. Regen
Sa, 24.09. 20:00 0.0 l/m2 in 12 Std. -
Sa, 24.09. 14:00 0.0 l/m2 in 6 Std. -
Sa, 24.09. 8:00 0.0 l/m2 in 12 Std. -
Sa, 24.09. 2:00 0.0 l/m2 in 6 Std. -
Fr, 23.09. 20:00 0.0 l/m2 in 12 Std. -
Fr, 23.09. 14:00 0.0 l/m2 in 6 Std. -
Ortszeit Niederschlagsmenge Niederschlagsart
So, 25.09. 9:00 0.1 l/m2 in 1 Std. Regen
So, 25.09. 8:50 keine Meldung -
So, 25.09. 8:40 keine Meldung -
So, 25.09. 8:30 0.1 l/m2 in 1 Std. -
So, 25.09. 8:20 keine Meldung -
So, 25.09. 8:10 keine Meldung -
So, 25.09. 8:00 0.1 l/m2 in 1 Std. Regen
So, 25.09. 7:30 0.1 l/m2 in 1 Std. Schneeregen
So, 25.09. 7:00 0.1 l/m2 in 1 Std. Regen
So, 25.09. 6:30 0.1 l/m2 in 1 Std. Schneeregen
So, 25.09. 6:00 0.1 l/m2 in 1 Std. Regen
Ortszeit Stärke Spitze Richtung
km/h Bft. km/h Grad Sektor
So, 25.09. 8:00 7 2 11 20° N
So, 25.09. 2:00 4 1 18 330° NW
Sa, 24.09. 20:00 4 1 18 250° W
Sa, 24.09. 14:00 4 1 11 210° SW
Sa, 24.09. 8:00 0 0 7 - -
Sa, 24.09. 2:00 4 1 7 170° S
Fr, 23.09. 20:00 6 1 17 290° W
Fr, 23.09. 14:00 7 2 19 170° S
Ortszeit Stärke Spitze Richtung
km/h Bft. km/h Grad Sektor
So, 25.09. 9:00 7 2 14 360° N
So, 25.09. 8:50 7 2 - 360° N
So, 25.09. 8:40 7 2 - 360° N
So, 25.09. 8:30 6 1 7 20° N
So, 25.09. 8:20 6 1 - 20° N
So, 25.09. 8:10 7 2 - 40° NO
So, 25.09. 8:00 7 2 7 20° N
So, 25.09. 7:30 4 1 7 10° N
So, 25.09. 7:00 4 1 4 30° NO
So, 25.09. 6:30 4 1 4 350° N
So, 25.09. 6:00 2 1 6 340° N
Ortszeit Untergrenze Bedeckung Gattung
total tief tief mittel hoch
So, 25.09. 8:00 840 m 7/8 7/8 - - -
So, 25.09. 2:00 1800 m 7/8 7/8 - - -
Sa, 24.09. 20:00 1500 m 7/8 7/8 - - -
Sa, 24.09. 14:00 2400 m 8/8 2/8 - - -
Sa, 24.09. 8:00 4500 m 7/8 7/8 - - -
Sa, 24.09. 2:00 5100 m 8/8 8/8 - - -
Fr, 23.09. 20:00 4200 m 8/8 8/8 - - -
Fr, 23.09. 14:00 5400 m 8/8 8/8 - - -
Ortszeit Bedeckungsgrad in Achtel und Wolkenuntergrenze
So, 25.09. 9:00 8(840m)
So, 25.09. 8:50 8(840m)
So, 25.09. 8:40 8
So, 25.09. 8:30 8(810m)
So, 25.09. 8:20 8(810m)
So, 25.09. 8:10 8
So, 25.09. 8:00 7(840m)
So, 25.09. 7:30 6(870m) 7(1080m) 7(1320m)
So, 25.09. 7:00 1(840m) 7(1050m) 8(1500m)
So, 25.09. 6:30 4(930m) 7(1500m)
So, 25.09. 6:00 2(870m) 7(1500m)
Ortszeit Luftdruck NN (hPa) Tendenz (hPa in 3 Std.)
So, 25.09. 8:00 1013 - 0,1
So, 25.09. 2:00 1013 + 0,2
Sa, 24.09. 20:00 1012 + 0,4
Sa, 24.09. 14:00 1012 - 0,7
Sa, 24.09. 8:00 1014 - 0,2
Sa, 24.09. 2:00 1015 - 0,4
Fr, 23.09. 20:00 1015 - 0,5
Fr, 23.09. 14:00 1017 - 1,6
Ortszeit Luftdruck NN (hPa) Tendenz (hPa in 3 Std.)
So, 25.09. 9:00 1013 + 0,2
So, 25.09. 8:50 1013 keine Meldung
So, 25.09. 8:40 1013 keine Meldung
So, 25.09. 8:30 1013 + 0,1
So, 25.09. 8:20 1013 keine Meldung
So, 25.09. 8:10 1013 keine Meldung
So, 25.09. 8:00 1013 - 0,1
So, 25.09. 7:30 1013 0,0
So, 25.09. 7:00 1013 - 0,1
So, 25.09. 6:30 1013 - 0,2
So, 25.09. 6:00 1013 - 0,3
Ortszeit Schneehöhe (cm)
So, 25.09. 8:00 0
So, 25.09. 2:00 0
Sa, 24.09. 20:00 0
Sa, 24.09. 14:00 0
Sa, 24.09. 8:00 0
Sa, 24.09. 2:00 0
Fr, 23.09. 20:00 0
Fr, 23.09. 14:00 0
Ortszeit Schneehöhe (cm)
So, 25.09. 9:00 0
So, 25.09. 8:50 0
So, 25.09. 8:40 0
So, 25.09. 8:30 0
So, 25.09. 8:20 0
So, 25.09. 8:10 0
So, 25.09. 8:00 0
So, 25.09. 7:30 0
So, 25.09. 7:00 0
So, 25.09. 6:30 0
So, 25.09. 6:00 0
Link zu dieser Seite / Seite empfehlen

Das Wetter in ...